| time (UTC) | temp F | wind direction | speed MPH | gust MPH | rain 1hr in | rain 24hr in | rain mn in | humidity % | barometer mb |
| 20260901143004 | 82 | 356 | 3.0 | 5.0 | 0.00 | 0.00 | 0.00 | 88 | 1019.8 |
| 20260901141505 | 81 | 41 | 5.0 | 7.0 | 0.00 | 0.00 | 0.00 | 89 | 1019.8 |
| 20260901140008 | 80 | 359 | 3.0 | 6.0 | 0.00 | 0.00 | 0.00 | 93 | 1019.7 |
| 20260901134509 | 79 | 41 | 5.0 | 7.0 | 0.00 | 0.00 | 0.00 | 96 | 1019.7 |
| 20260901133011 | 78 | 6 | 5.0 | 7.0 | 0.00 | 0.00 | 0.00 | 97 | 1019.7 |
| 20260901131505 | 78 | 351 | 2.0 | 6.0 | 0.00 | 0.00 | 0.00 | 97 | 1019.7 |
| 20260901130007 | 76 | 1 | 3.0 | 5.0 | 0.00 | 0.00 | 0.00 | 97 | 1019.6 |
| 20260901124514 | 76 | 1 | 3.0 | 5.0 | 0.00 | 0.00 | 0.00 | 97 | 1019.5 |
| 20260901123002 | 75 | 335 | 3.0 | 4.0 | 0.00 | 0.00 | 0.00 | 97 | 1019.3 |
| 20260901121523 | 75 | 353 | 2.0 | 4.0 | 0.00 | 0.00 | 0.00 | 97 | 1019.1 |
| 20260901120009 | 75 | 360 | 2.0 | 3.0 | 0.00 | 0.00 | 0.00 | 97 | 1019.1 |
| 20260901114513 | 74 | 359 | 2.0 | 3.0 | 0.00 | 0.00 | 0.00 | 97 | 1018.9 |
| 20260901113004 | 74 | 355 | 2.0 | 3.0 | 0.00 | 0.00 | 0.00 | 97 | 1018.8 |
| 20260901111503 | 74 | 359 | 2.0 | 3.0 | 0.00 | 0.00 | 0.00 | 97 | 1018.6 |
| 20260901110009 | 74 | 359 | 2.0 | 3.0 | 0.00 | 0.00 | 0.00 | 97 | 1018.4 |
| 20260901104515 | 74 | 341 | 2.0 | 3.0 | 0.00 | 0.00 | 0.00 | 97 | 1018.4 |
| 20260901103025 | 74 | 1 | 2.0 | 4.0 | 0.00 | 0.00 | 0.00 | 97 | 1018.4 |
| 20260901101507 | 74 | 350 | 2.0 | 3.0 | 0.00 | 0.00 | 0.00 | 97 | 1018.3 |
| 20260901100004 | 74 | 360 | 2.0 | 2.0 | 0.00 | 0.00 | 0.00 | 96 | 1018.3 |
| 20260901094521 | 74 | 360 | 1.0 | 2.0 | 0.00 | 0.00 | 0.00 | 97 | 1018.2 |
| 20260901093017 | 74 | 360 | 2.0 | 3.0 | 0.00 | 0.00 | 0.00 | 96 | 1018.0 |
| 20260901091523 | 74 | 359 | 2.0 | 3.0 | 0.00 | 0.00 | 0.00 | 96 | 1017.9 |
| 20260901090006 | 74 | 359 | 2.0 | 2.0 | 0.00 | 0.00 | 0.00 | 96 | 1017.7 |
| 20260901084508 | 74 | 359 | 1.0 | 3.0 | 0.00 | 0.00 | 0.00 | 96 | 1017.9 |
| 20260901083014 | 74 | 359 | 1.0 | 2.0 | 0.00 | 0.00 | 0.00 | 96 | 1017.8 |
| 20260901073023 | 74 | 360 | 0.0 | 2.0 | 0.00 | 0.00 | 0.00 | 96 | 1018.1 |
| 20260901071517 | 75 | 360 | 0.0 | 0.0 | 0.00 | 0.00 | 0.00 | 96 | 1018.2 |
| 20260901070038 | 75 | 360 | 0.0 | 2.0 | 0.00 | 0.00 | 0.00 | 96 | 1018.4 |
| 20260901064504 | 75 | 360 | 0.0 | 2.0 | 0.00 | 0.00 | 0.00 | 95 | 1018.6 |
| 20260901063002 | 75 | 63 | 0.0 | 2.0 | 0.00 | 0.00 | 0.00 | 95 | 1018.7 |
| 20260901061503 | 75 | 63 | 0.0 | 0.0 | 0.00 | 0.00 | 0.00 | 95 | 1018.8 |
| 20260901060004 | 75 | 63 | 0.0 | 2.0 | 0.00 | 0.00 | 0.00 | 95 | 1018.7 |
| 20260901054505 | 75 | 63 | 0.0 | 0.0 | 0.00 | 0.00 | 0.00 | 95 | 1018.8 |
| 20260901053009 | 75 | 63 | 0.0 | 2.0 | 0.00 | 0.00 | 0.00 | 95 | 1019.1 |
| 20260901051502 | 75 | 63 | 0.0 | 2.0 | 0.00 | 0.00 | 0.00 | 95 | 1019.2 |
| 20260901050003 | 75 | 63 | 0.0 | 2.0 | 0.00 | 0.00 | 0.00 | 95 | 1019.2 |
| 20260901044506 | 76 | 63 | 0.0 | 0.0 | 0.00 | 0.00 | 0.00 | 94 | 1019.2 |
| 20260901043013 | 76 | 63 | 0.0 | 0.0 | 0.00 | 0.00 | 0.00 | 94 | 1019.2 |
| 20260901041512 | 76 | 63 | 0.0 | 2.0 | 0.00 | 0.00 | 0.00 | 94 | 1019.2 |
| 20260901040001 | 76 | 63 | 0.0 | 0.0 | 0.00 | 0.00 | 0.00 | 94 | 1019.4 |
| 20260901034509 | 76 | 63 | 0.0 | 1.0 | 0.00 | 0.00 | 0.00 | 94 | 1019.5 |
| 20260901033017 | 76 | 63 | 0.0 | 0.0 | 0.00 | 0.00 | 0.00 | 94 | 1019.7 |
| 20260901031520 | 76 | 63 | 1.0 | 1.0 | 0.00 | 0.00 | 0.00 | 93 | 1019.8 |
| 20260901030019 | 77 | 63 | 0.0 | 1.0 | 0.00 | 0.00 | 0.00 | 93 | 1019.7 |
| 20260901024503 | 77 | 63 | 0.0 | 2.0 | 0.00 | 0.00 | 0.00 | 92 | 1019.7 |
| 20260901023004 | 77 | 115 | 0.0 | 2.0 | 0.00 | 0.00 | 0.00 | 92 | 1019.7 |
| 20260901021507 | 77 | 26 | 0.0 | 2.0 | 0.00 | 0.00 | 0.00 | 91 | 1019.7 |
| 20260901020018 | 78 | 25 | 0.0 | 2.0 | 0.00 | 0.00 | 0.00 | 90 | 1019.7 |
| 20260901014521 | 79 | 25 | 0.0 | 2.0 | 0.00 | 0.00 | 0.00 | 90 | 1019.6 |
| 20260901013004 | 79 | 44 | 0.0 | 1.0 | 0.00 | 0.00 | 0.00 | 89 | 1019.3 |
| 20260901011506 | 79 | 43 | 0.0 | 3.0 | 0.00 | 0.00 | 0.00 | 89 | 1019.1 |
| 20260901010033 | 80 | 41 | 1.0 | 2.0 | 0.00 | 0.00 | 0.00 | 87 | 1018.7 |
| 20260901004526 | 80 | 41 | 0.0 | 3.0 | 0.00 | 0.00 | 0.00 | 87 | 1018.6 |
| 20260901003028 | 80 | 18 | 0.0 | 2.0 | 0.00 | 0.00 | 0.00 | 86 | 1018.4 |
| 20260901001508 | 81 | 360 | 0.0 | 2.0 | 0.00 | 0.00 | 0.00 | 85 | 1018.7 |
| 20260901000010 | 82 | 86 | 1.0 | 5.0 | 0.00 | 0.00 | 0.00 | 83 | 1018.6 |
| 20260831234534 | 82 | 128 | 0.0 | 4.0 | 0.00 | 0.00 | 0.00 | 81 | 1018.7 |
| 20260831233032 | 84 | 83 | 1.0 | 7.0 | 0.00 | 0.00 | 0.00 | 79 | 1018.5 |
| 20260831231504 | 84 | 124 | 1.0 | 6.0 | 0.00 | 0.00 | 0.00 | 79 | 1018.6 |
| 20260831230037 | 84 | 109 | 4.0 | 7.0 | 0.00 | 0.00 | 0.00 | 78 | 1018.5 |
| 20260831224516 | 84 | 63 | 4.0 | 7.0 | 0.00 | 0.00 | 0.00 | 76 | 1018.5 |
| 20260831223038 | 86 | 41 | 4.0 | 11.0 | 0.00 | 0.00 | 0.00 | 74 | 1018.4 |
| 20260831221533 | 87 | 360 | 5.0 | 7.0 | 0.00 | 0.00 | 0.00 | 69 | 1018.1 |
| 20260831220008 | 86 | 360 | 4.0 | 8.0 | 0.00 | 0.00 | 0.00 | 69 | 1018.4 |
| 20260831214513 | 86 | 29 | 3.0 | 10.0 | 0.00 | 0.00 | 0.00 | 68 | 1018.5 |
| 20260831213041 | 87 | 80 | 3.0 | 8.0 | 0.00 | 0.00 | 0.00 | 70 | 1018.2 |
| 20260831211531 | 86 | 69 | 2.0 | 9.0 | 0.00 | 0.00 | 0.00 | 70 | 1018.2 |
| 20260831210031 | 87 | 19 | 5.0 | 10.0 | 0.00 | 0.00 | 0.00 | 68 | 1018.1 |
| 20260831204510 | 88 | 77 | 5.0 | 9.0 | 0.00 | 0.00 | 0.00 | 68 | 1018.2 |
| 20260831203020 | 87 | 91 | 3.0 | 9.0 | 0.00 | 0.00 | 0.00 | 69 | 1018.2 |
| 20260831201535 | 87 | 66 | 2.0 | 11.0 | 0.00 | 0.00 | 0.00 | 69 | 1018.2 |
| 20260831200033 | 87 | 61 | 5.0 | 12.0 | 0.00 | 0.00 | 0.00 | 70 | 1018.5 |
| 20260831194505 | 87 | 124 | 3.0 | 10.0 | 0.00 | 0.00 | 0.00 | 69 | 1018.5 |
| 20260831193006 | 87 | 1 | 4.0 | 10.0 | 0.00 | 0.00 | 0.00 | 72 | 1018.7 |
| 20260831191536 | 87 | 106 | 4.0 | 11.0 | 0.00 | 0.00 | 0.00 | 71 | 1018.9 |
| 20260831190005 | 86 | 31 | 4.0 | 10.0 | 0.00 | 0.00 | 0.00 | 72 | 1019.0 |
| 20260831184510 | 86 | 360 | 5.0 | 12.0 | 0.00 | 0.00 | 0.00 | 73 | 1019.2 |
| 20260831183003 | 86 | 34 | 5.0 | 10.0 | 0.00 | 0.01 | 0.00 | 74 | 1019.3 |
| 20260831181538 | 85 | 78 | 6.0 | 13.0 | 0.00 | 0.05 | 0.00 | 74 | 1019.6 |
| 20260831180004 | 85 | 15 | 6.0 | 14.0 | 0.00 | 0.05 | 0.00 | 75 | 1019.9 |
| 20260831174537 | 86 | 38 | 5.0 | 13.0 | 0.00 | 0.05 | 0.00 | 73 | 1019.8 |
| 20260831173014 | 86 | 19 | 4.0 | 10.0 | 0.00 | 0.05 | 0.00 | 72 | 1020.0 |
| 20260831171503 | 85 | 53 | 6.0 | 9.0 | 0.00 | 0.05 | 0.00 | 76 | 1020.1 |
| 20260831170001 | 85 | 11 | 5.0 | 7.0 | 0.00 | 0.05 | 0.00 | 77 | 1020.2 |
| 20260831164505 | 84 | 79 | 4.0 | 11.0 | 0.00 | 0.05 | 0.00 | 79 | 1020.3 |
| 20260831163037 | 84 | 64 | 7.0 | 12.0 | 0.00 | 0.05 | 0.00 | 78 | 1020.5 |
| 20260831161513 | 83 | 83 | 5.0 | 9.0 | 0.00 | 0.05 | 0.00 | 79 | 1020.6 |
| 20260831160024 | 83 | 164 | 4.0 | 11.0 | 0.00 | 0.05 | 0.00 | 80 | 1020.8 |
| 20260831154554 | 83 | 108 | 5.0 | 11.0 | 0.00 | 0.05 | 0.00 | 79 | 1020.8 |
| 20260831153036 | 83 | 150 | 5.0 | 10.0 | 0.00 | 0.05 | 0.00 | 85 | 1020.8 |
| 20260831151537 | 83 | 41 | 1.0 | 9.0 | 0.00 | 0.05 | 0.00 | 85 | 1020.9 |
| 20260831150019 | 83 | 44 | 4.0 | 11.0 | 0.00 | 0.05 | 0.00 | 84 | 1020.7 |
| 20260831144504 | 83 | 38 | 5.0 | 7.0 | 0.00 | 0.05 | 0.00 | 86 | 1020.5 |